Tracking 32420 objects as of 8-Dec-2025
HD Live streaming from Space Station
objects crossing your sky now

STARLINK-32409

Track STARLINK-32409 now!
10-day predictions
STARLINK-32409 is classified as:


NORAD ID: 61591
Int'l Code: 2024-187T
Perigee: 481.4 km
Apogee: 483.3 km
Inclination: 53.2 °
Period: 94.1 minutes
Semi major axis: 6853 km
RCS: Unknown
Launch date: October 18, 2024
Source: United States (US)
Launch site: AIR FORCE EASTERN TEST RANGE (AFETR)
Your satellite tracking list
Your tracking list is empty




NASA's NSSDC Master Catalog

Two Line Element Set (TLE):
1 61591U 24187T   25342.00004630 -.00004400  00000-0 -13655-3 0  9996
2 61591  53.1606 116.0504 0001399  77.8949 327.1376 15.30193201  5850
Source of the keplerian elements: AFSPC